Погода в Борисоглебске

Погода в Борисоглебске : погода сейчас, прогноз погоды и архив. Всё, что Вы хотите узнать о погоде в Борисоглебске!

Хотите узнать прогноз погоды в Борисоглебске? Тогда Вам сюда: Погода в Борисоглебске

Поиск расширенной информации на нашем сайте:

Другие новости

Новости СМИ2

Главная страница сайта

Новости сайта

02.10.2013

Напоминаем, что на нашем новом сайте вы можете получить высокодетализированные прогнозы погоды по пунктам России, СНГ и мира (включающие важные для авиации метеовеличины, такие как направление и скорость ветра, видимость, явления погоды, количество и форма облачности, нижняя и верхняя граница облачности), а также ознакомиться с разнообразными материалами по авиационной метеорологии и подборкой полезных ссылок на эту тему.

Сайт Метеоцентр.Азия посвящён разработке технологий оптимизации авиаметеорологического обслуживания, включая проектирование и перспективное создание нескольких автоматизированных авиаметеорологических систем:
- система выпуска высокодетальных прогностических карт явлений погоды для нижнего воздушного пространства по России и ближнему зарубежью;
- система верификации прогнозов TAF (выпускаемых синоптиками официальных АМСГ РФ и ближнего зарубежья) и AUTOTAF (выпускаемых сайтом Метеоцентр.Азия) - выявление ошибок, онлайн-сопоставление с фактической погодой METAR, автоматическое внесение коррективов в прогнозы при резком отклонении фактической погоды от прогноза, подсчёт оправдываемости прогнозов по элементам и в целом;
- система обработки, анализа и отображения авиаметеорологической информации для применения провайдерами метеорологической информации.


Погода в Борисоглебске - сегодня

Время (UTC), дата Ветер
(°,м/с) 
Видим.   Явления Облачность Т
(°С)
Тd
(°С)
f(%) Тe
(°С)
Pmin
(гПа)
dP
(гПа)
Po
(мм)
O2
(г/м3)
Тmin Tmax R s Состояние
почвы
00 24.03.17 030 (СВ) 10 км    9/9 600 м 
[Sc]
+5.1 +2.7 84 +5  1025.5  1.2  759  300           
03 24.03.17 050 (СВ) 4000 м  дымка  ясно 600 м 
+1 -0.4 90 1026.4  0.7  760  305  +1    0.0     
06 24.03.17 060 (СВ) 4000 м  дымка  8/0 средняя 
[Ac trans]
+3.8 +2 88 +5  1025.5  -0.7  759  301  -0.4         
09 24.03.17 180 (Ю) 4000 м    8/0 средняя 
[Ac trans]
+8 +2.9 70 +8  1023.7  -1.6  758  296           
12 24.03.17 170 (Ю) 10 км    9/9 600 м 
[Sc]
+9 +4.5 73 +8  1020.3  -3.3  755  294           
15 24.03.17 180 (Ю) 4000 м  слаб. ливневой дождь  10/10 300 м кучево-дожд. 
[Cb cap]
+7.4 +5.5 88 +7  1016.7  -3.5  753  294    +9.2  0.0     
18 24.03.17 190 (Ю) 4000 м  слаб. ливневой дождь  10/10 300 м кучево-дожд. 
[Cb cap]
+7.8 +6.2 90 +8  1014.3  -2.4  751  293           
21 24.03.17 210 (ЮЗ) 4000 м  дымка{ливн. осадки}  9/9 600 м 
[Sc]
+7.9 +6.1 88 +8  1010.8  -3.5  748  292           
00 25.03.17 240 (ЮЗ) 4000 м  дымка{ливн. осадки}  9/9 600 м 
[Sc]
+8.2 +5.9 85 +8  1008.8  -2  747  291           
03 25.03.17 300 (СЗ) 3{11}  4000 м  дымка  9/9 600 м 
[Sc]
+4 +3.2 95 +3  1009.9  0.9  748  296  +4       
06 25.03.17 330 (СЗ) 3-10{11}  10 км    9/9 600 м 
[Sc]
+2.9 -0.7 77 +2  1011  748  298           
09 25.03.17 330 (СЗ) 5-12{12}  20000 м    8/0 средняя 
[Ac trans]
+4.6 -2.1 62 +2  1012.2  1.3  749  297           
12 25.03.17 300 (СЗ) 3{14}  20000 м  {ливн. осадки}  10/6 300 м кучево-дожд., средняя 
[Cb cap|Ac trans]
+4.8 -2.9 57 +4  1012.8  0.6  750  297           
15 25.03.17 330 (СЗ) 4{12}  20000 м    6/0 средняя 
[Ac trans]
+3.1 -3.7 61 +1  1013.8  0.9  750  299    +5  0.0     
18 25.03.17 300 (СЗ) 10 км    ясно 
-0.4 -5.5 68 1015.2  1.2  751  304           
21 25.03.17 240 (ЮЗ) 10 км    ясно 
-2 -5.5 77 -1  1015.7  0.5  752  306           
00 26.03.17 230 (ЮЗ) 10 км    8/0 средняя 
[Ac trans]
-1.4 -4.7 78 -1  1016.4  0.7  752  305           
03 26.03.17 тихо ()   4000 м  дымка  4/0 средняя 
[Ac trans]
-3.3 -5 88 -3  1016.8  0.3  752  307  -3.3         
06 26.03.17 210 (ЮЗ) 10 км    8/0 верхняя 
[Ci fib]
+0.9 -4.8 66 +2  1018.3  1.6  754  303  -3.5         
09 26.03.17 280 (З) 20000 м    8/0 средняя 
[Ac trans]
+5.9 -7.2 38 +6  1017.8  -0.2  754  298           
12 26.03.17 270 (З) 20000 м    9/0 средняя 
[Ac trans]
+6 -8.5 34 +6  1016.5  -1.2  753  298           
15 26.03.17 260 (З) 20000 м    8/0 средняя 
[Ac trans]
+5.9 -9.2 33 +6  1015.7  -0.8  752  297    +6.6       
18 26.03.17 210 (ЮЗ) 10 км    ясно 
-0.3 -5 71 1016  752  304           
21 26.03.17 220 (ЮЗ) 10 км    ясно 
-1.1 -5.8 70 -1  1014  -2.1  750  304           
00 27.03.17 200 (Ю) 10 км    ясно 
-2.2 -6.1 75 -2  1010.5  -3.4  748  304           
Время (UTC), дата Ветер
(°,м/с) 
Видим.   Явления Облачность Т
(°С)
Тd
(°С)
f(%) Тe
(°С)
Pmin
(гПа)
dP
(гПа)
Po
(мм)
O2
(г/м3)
Тmin Tmax R s Состояние
почвы

Для получения пояснительной информации подведите курсор к названию столбца.

ПОГОДА в Борисоглебске - архив

Всё, что Вы хотите узнать о погоде в Борисоглебске - удобно и подробно!

Выберите нужную дату (начиная с 1 января 2015* года) и нажмите кнопку "Найти".
Будут отображены архивные сводки погоды по пункту Борисоглебск, начиная с указанной даты.


Отображать данные в формате CSV (для использования в таблицах Excel)


Внимание! Наш архив погоды предназначен исключительно для личного некоммерческого использования в познавательных целях. Если Вам необходимы официальные справки о состоянии погоды (для производственных, юридических, коммерческих и т.п. целей), обращайтесь в органы Росгидромета.

*Примечание: данная дата относится к архиву по метеостанциям СССР (Россия, СНГ, Балтия).
Архив по метеостанциям Зарубежной Европы и Азии (кроме Китая) хранится 10 дней, по другим регионам земного шара (Китай, Африка, Америка, Австралия, Океания) - 1 день.

Борисоглебск - район местоположения метеостанции


Название, широта, долгота, высота метеостанции:
Борисоглебск 51.4°ш. 42.1°д. 106 м над ур. моря [Российская Федерация]

Дополнительная информация

В oтличие oт бoльшинства пoгoдных сайтoв мы публикуем пoдрoбную метеoинфoрмацию в детальнoм прoфессиoнальнoм фoрмате.

Характеристики температуры и влажнoсти вoздуха измеряются на высoте 2 м в тени вдали oт зданий и деревьев.
Скoрoсть ветра измеряется на высoте 10 м (на урoвне рoста челoвека скoрoсть ветра ниже в 1.5-2 раза). Если метеoстанция нахoдится в гoрoде или в лесу, тo скoрoсть ветра занижена на 2-4 м/с пo сравнению с oткрытым местoм. Скoрoсть ветра над акватoриями крупных рек и oзёр, а также на вершинах хoлмoв на 2-5 м/с выше, чем в oбычных услoвиях.
Атмoсфернoе давление в разных тoчках местнoсти мoжет значительнo oтличаться oт давления на метеoстанции, в зависимoсти oт услoвий рельефа (при пoдъёме на 10 м давление пoнижается примернo на 1 мм рт.ст.).